Home   Weather   Fairfax   Past weeks
Flag for USA

Past Weather in Fairfax, Virginia, USA — Yesterday and Last 2 Weeks

Now
86 °F

Passing clouds.


Feels Like: 86 °F
Forecast: 90 / 68 °F
Wind: 9 mph from Northwest

Location: Washington-Dulles International Airport

Current Time: Jun 26, 2019 at 12:25:01 pm

Latest Report: Jun 26, 2019 at 11:52 am


Visibility: 10 mi

Pressure: 30.08 "Hg

Humidity: 43%

Dew Point: 61 °F

Location of FairfaxLocation

Past Weather in Fairfax — Graph

°F

Fairfax Temperature Yesterday

Maximum temperature yesterday: 88 °F (at 3:52 pm)
Minimum temperature yesterday: 70 °F (at 5:52 am)
Average temperature yesterday: 78 °F

High & Low Weather Summary for the Past Weeks

 TemperatureHumidityPressure
High90 °F (Jun 20, 3:52 pm)97% (Jun 13, 3:52 am)30.19 "Hg (Jun 13, 3:52 am)
Low52 °F (Jun 15, 5:52 am)28% (Jun 22, 3:52 pm)29.51 "Hg (Jun 20, 5:52 pm)
Average73 °F64%29.91 "Hg
* Reported Jun 11 10:52 am — Jun 26 10:52 am, Fairfax. Weather by CustomWeather, © 2019

Note: Actual official high and low records may vary slightly from our data, if they occured in-between our weather recording intervals... More about our weather records

Advertising

Fairfax Weather History for the Previous 24 Hours

Scroll right to see more
 ConditionsComfort  
Time TempWeatherWind HumidityBarometerVisibility
10:52 am
Wed, Jun 26
85 °FPassing clouds.12 mph45%30.09 "Hg10 mi
9:52 am83 °FScattered clouds.9 mph50%30.09 "Hg10 mi
8:52 am79 °FScattered clouds.No wind56%30.09 "Hg10 mi
7:52 am75 °FPassing clouds.5 mph60%30.09 "Hg10 mi
6:52 am67 °FPassing clouds.No wind85%30.08 "Hg10 mi
5:52 am63 °FScattered clouds.3 mph84%30.06 "Hg10 mi
4:52 am65 °FPassing clouds.No wind81%30.04 "Hg10 mi
3:52 am68 °FPassing clouds.No wind73%30.03 "Hg10 mi
2:52 am69 °FPassing clouds.6 mph73%30.01 "Hg10 mi
1:52 am69 °FPassing clouds.7 mph73%30.01 "Hg10 mi
12:52 am70 °FPassing clouds.5 mph71%30.00 "Hg10 mi
11:52 pm
Tue, Jun 25
73 °FHigh level clouds.5 mph64%29.98 "Hg10 mi
10:52 pm75 °FPassing clouds.5 mph62%29.98 "Hg10 mi
9:52 pm77 °FPassing clouds.3 mph58%29.96 "Hg10 mi
8:52 pm80 °FPassing clouds.5 mph52%29.93 "Hg10 mi
7:52 pm83 °FBroken clouds.6 mph46%29.91 "Hg10 mi
6:52 pm85 °FBroken clouds.13 mph40%29.89 "Hg10 mi
5:52 pm86 °FBroken clouds.10 mph39%29.88 "Hg10 mi
4:52 pm88 °FBroken clouds.16 mph38%29.88 "Hg10 mi
3:52 pm88 °FBroken clouds.16 mph40%29.89 "Hg10 mi
2:52 pm87 °FPartly sunny.7 mph46%29.89 "Hg10 mi
1:52 pm86 °FPartly sunny.10 mph48%29.90 "Hg10 mi
12:52 pm83 °FPartly sunny.7 mph53%29.90 "Hg10 mi
Weather by CustomWeather, © 2019

See weather overview